Volver al catálogo

PEGASUS DEB

ActivoPO
NORAD 24817·DEBRIS·🇺🇸 United States

Lanzado May 19, 1994 desde Vandenberg Space Force Base

Loading…

Próximos Pases (próximas 24 horas)

TLE

ActualizadoSource: Space-Track

Época: Sep 14, 2026, 12:33 UTC

1 24817U 94029ABU 26257.52359197  .00001510  00000-0  36240-3 0  9994
2 24817  81.6853 274.3919 0357784 182.2121 332.6554 14.20510419533366

Sigue PEGASUS DEB en tiempo real con AllMySat

Download on the App Store